sat.trackr.live / text

‹ back to catalog

IRIDE-MS1-EAGLET 2-15

NORAD 68462 · 2026-067AY

PAYLOAD ACTIVE UNKNOWN

§ Identity

Operator
Country
IT
Launch date
2026-03-30
Launch site
AFWTR
Launch vehicle
Mass (kg)
RCS (m²)

External: N2YO · Heavens-Above · Gunter

§ Orbital elements

Epoch: 2026-05-25T03:14:55.708800Z

Period
94.84 min
Inclination
97.4537°
Eccentricity
0.0004588
Mean motion
15.18366321 rev/d
Perigee alt
507.6 km
Apogee alt
513.9 km
Semi-major
6,888.9 km
B*
3.2081e-4
RAAN
103.9525°
Arg perigee
99.5522°
Mean anomaly
260.6231°
Rev number
844

§ Raw data

IRIDE-MS1-EAGLET 2-151 68462U 26067AY  26145.13536700  .00006527  00000+0  32081-3 0  99962 68462  97.4537 103.9525 0004588  99.5522 260.6231 15.18366321  8447

JSON: /api/v1/satellites/68462 · /tle

For live sub-satellite position, see the globe view (requires WebGL).

§ Visibility from observer

Set your observer location to see the next 7 days of passes ≥ 10°. The values pass through the URL so the page stays shareable.

No JS? Fill the form by hand. The geolocation button needs JavaScript.